Flight Information

DEPARTURE
ONTARIO, CA
Elevation:
944
Runways:
8L/26R - 12197x150 - CONC-G
8R/26L - 10200x150 - CONC-G
Active PE Departure:
26L - 26R
Current PE ATIS:
H
Altimeter:
29.84
Remarks:
SIMULTANEOUS APPROACHES TO PARALLEL RUNWAYS IN USE. V F R DEPARTURES CONTACT CLEARANCE DELIVERY, ADVISE ON COURSE HEADING, ALTITUDE, AND IF FLIGHT FOLLOWING IS REQUESTED.
ATIS:
124.25 909-605-0056
Clearance Delivery:
118.1
Ground:
121.9
Tower:
120.6
DESTINATION
,
Elevation:
TPA:
1000 (est.)


6754.1 NM74° True-14° Var59° HDG

Flight Plan:
(click to file on line)

1. Type
2. Aircraft Identification
3. Aircraft Type / Special Equipment
4. True Airspeed
kts
5. Departure Airport
(ICAO code)
6. Arriving Airport
(ICAO code)
7. Cruising Altitude
ft
8. Alternate Airport
(ICAO code)
9. Route of Flight
10. Remarks


00:00:00 Departure ATIS: Destination ATIS:

Clearance Limit:
Route:
Altitude: Expect in minutes
Frequency:
Transponder: (7500 Hijack / 7600 Lost Comms / 7700 Emergency)


KONT 110453Z 27005KT 10SM BKN250 17/07 A2986 RMK AO2 SLP105 T01670072
Time: 2021-04-11T04:53:00Z
1618117154
Winds: 270 @ 5 kts
Visibility: 10.0 sm
Clouds (AGL): BKN 25000
Temperature: 16.7 C
Dew Point: 7.2 C
Pressure: 29.861221 in Hgbr


Notes:

Data extracted from FAA Digital Chart Supplement. Effective: 0901Z Thursday, Feb 25, 2021 to 0901Z Thursday, APR 22, 2021
Current ATIS data is provided courtisy of PilotEdge.